Time,TemperatureF,DewpointF,PressureIn,WindDirection,WindDirectionDegrees,WindSpeedMPH,WindSpeedGustMPH,Humidity,HourlyPrecipIn,Conditions,Clouds,dailyrainin,SoftwareType,DateUTC
2013-06-11 00:01:00,83.2,76.4,30.04,NNW,338,0.4,1.3,80,0.00,,,0.00,WUHU216HW,2013-06-11 04:01:00,
2013-06-11 00:03:00,83.0,76.2,30.04,NNW,338,0.7,1.3,80,0.00,,,0.00,WUHU216HW,2013-06-11 04:03:00,
2013-06-11 00:07:00,83.0,76.2,30.04,NNW,338,0.4,0.9,80,0.00,,,0.00,WUHU216HW,2013-06-11 04:07:00,
2013-06-11 00:12:00,83.0,76.2,30.04,NNW,338,0.0,0.9,80,0.00,,,0.00,WUHU216HW,2013-06-11 04:12:00,
2013-06-11 00:16:00,83.0,76.2,30.04,NNE,23,0.7,0.7,80,0.00,,,0.00,WUHU216HW,2013-06-11 04:16:00,
2013-06-11 00:17:00,83.0,76.2,30.04,NNE,23,0.7,0.7,80,0.00,,,0.00,WUHU216HW,2013-06-11 04:17:00,
2013-06-11 00:22:00,83.0,76.2,30.04,NNE,23,0.7,0.7,80,0.00,,,0.00,WUHU216HW,2013-06-11 04:22:00,
2013-06-11 00:46:00,82.3,76.3,30.04,NE,45,0.4,0.4,82,0.00,,,0.00,WUHU216HW,2013-06-11 04:46:00,
2013-06-11 00:47:00,82.3,76.3,30.04,NE,45,0.4,0.4,82,0.00,,,0.00,WUHU216HW,2013-06-11 04:47:00,
2013-06-11 00:52:00,82.3,76.3,30.04,NE,45,0.4,0.4,82,0.00,,,0.00,WUHU216HW,2013-06-11 04:52:00,
2013-06-11 01:00:00,81.9,76.0,30.03,East,90,0.2,0.2,82,0.00,,,0.00,WUHU216HW,2013-06-11 05:00:00,
2013-06-11 01:05:00,81.9,76.0,30.03,East,90,0.0,0.7,82,0.00,,,0.00,WUHU216HW,2013-06-11 05:05:00,
2013-06-11 01:10:00,81.9,76.0,30.04,East,90,0.0,0.7,82,0.00,,,0.00,WUHU216HW,2013-06-11 05:10:00,
2013-06-11 01:16:00,81.7,75.8,30.04,SE,135,0.0,0.4,82,0.00,,,0.00,WUHU216HW,2013-06-11 05:16:00,
2013-06-11 01:21:00,81.7,75.8,30.03,SE,135,0.0,0.2,82,0.00,,,0.00,WUHU216HW,2013-06-11 05:21:00,
2013-06-11 01:26:00,81.7,75.8,30.03,SE,135,0.7,0.7,82,0.00,,,0.00,WUHU216HW,2013-06-11 05:26:00,
2013-06-11 01:31:00,81.5,75.6,30.03,SE,135,0.4,0.7,82,0.00,,,0.00,WUHU216HW,2013-06-11 05:31:00,
2013-06-11 01:36:00,81.5,75.6,30.02,SE,135,0.0,0.7,82,0.00,,,0.00,WUHU216HW,2013-06-11 05:36:00,
2013-06-11 01:41:00,81.4,75.4,30.02,SE,135,0.0,0.7,82,0.00,,,0.00,WUHU216HW,2013-06-11 05:41:00,
2013-06-11 01:46:00,81.4,75.7,30.02,SE,135,0.0,0.4,83,0.00,,,0.00,WUHU216HW,2013-06-11 05:46:00,
2013-06-11 01:53:00,81.2,75.3,30.02,SE,135,0.4,0.4,82,0.00,,,0.00,WUHU216HW,2013-06-11 05:53:00,
2013-06-11 01:58:00,81.2,75.3,30.02,SE,135,0.0,0.4,82,0.00,,,0.00,WUHU216HW,2013-06-11 05:58:00,
2013-06-11 02:03:00,81.0,75.1,30.01,SE,135,0.0,0.4,82,0.00,,,0.00,WUHU216HW,2013-06-11 06:03:00,
2013-06-11 02:08:00,81.0,75.1,30.01,SE,135,0.0,0.7,82,0.00,,,0.00,WUHU216HW,2013-06-11 06:08:00,
2013-06-11 02:13:00,81.0,75.1,30.01,SE,135,0.2,0.7,82,0.00,,,0.00,WUHU216HW,2013-06-11 06:13:00,
2013-06-11 02:18:00,81.0,75.3,30.01,SE,135,0.0,0.2,83,0.00,,,0.00,WUHU216HW,2013-06-11 06:18:00,
2013-06-11 02:24:00,80.8,75.2,30.01,SE,135,0.0,0.0,83,0.00,,,0.00,WUHU216HW,2013-06-11 06:24:00,
2013-06-11 02:29:00,80.8,75.2,30.01,SE,135,0.0,0.0,83,0.00,,,0.00,WUHU216HW,2013-06-11 06:29:00,
2013-06-11 02:34:00,80.6,75.0,30.01,SE,135,0.0,0.0,83,0.00,,,0.00,WUHU216HW,2013-06-11 06:34:00,
2013-06-11 02:39:00,80.6,75.0,30.01,SE,135,0.0,0.0,83,0.00,,,0.00,WUHU216HW,2013-06-11 06:39:00,
2013-06-11 02:44:00,80.6,75.0,30.01,ESE,113,0.4,0.7,83,0.00,,,0.00,WUHU216HW,2013-06-11 06:44:00,
2013-06-11 02:49:00,80.6,75.0,30.01,ESE,113,0.0,0.7,83,0.00,,,0.00,WUHU216HW,2013-06-11 06:49:00,
2013-06-11 02:54:00,80.5,74.8,30.00,ESE,113,0.0,0.2,83,0.00,,,0.00,WUHU216HW,2013-06-11 06:54:00,
2013-06-11 02:59:00,80.5,74.8,30.00,ESE,113,0.0,0.4,83,0.00,,,0.00,WUHU216HW,2013-06-11 06:59:00,
2013-06-11 03:02:00,80.5,74.8,30.00,ESE,113,0.0,0.0,83,0.00,,,0.00,WUHU216HW,2013-06-11 07:02:00,
2013-06-11 03:04:00,80.5,74.8,30.00,ESE,113,0.0,0.4,83,0.00,,,0.00,WUHU216HW,2013-06-11 07:04:00,
2013-06-11 03:09:00,80.5,74.8,30.00,ESE,113,0.0,0.0,83,0.00,,,0.00,WUHU216HW,2013-06-11 07:09:00,
2013-06-11 03:32:00,80.1,74.5,30.00,ESE,113,0.4,0.4,83,0.00,,,0.00,WUHU216HW,2013-06-11 07:32:00,
2013-06-11 03:38:00,80.1,74.5,30.00,ESE,113,0.4,0.4,83,0.00,,,0.00,WUHU216HW,2013-06-11 07:38:00,
2013-06-11 04:00:00,79.7,74.5,30.00,ESE,113,0.0,0.0,84,0.00,,,0.00,WUHU216HW,2013-06-11 08:00:00,
2013-06-11 04:05:00,79.7,74.5,30.00,ESE,113,0.0,0.0,84,0.00,,,0.00,WUHU216HW,2013-06-11 08:05:00,
2013-06-11 04:11:00,79.6,74.4,30.00,ESE,113,0.0,0.0,84,0.00,,,0.00,WUHU216HW,2013-06-11 08:11:00,
2013-06-11 04:16:00,79.6,74.4,30.00,ESE,113,0.0,0.4,84,0.00,,,0.00,WUHU216HW,2013-06-11 08:16:00,
2013-06-11 04:21:00,79.6,74.4,30.00,ESE,113,0.0,0.4,84,0.00,,,0.00,WUHU216HW,2013-06-11 08:21:00,
2013-06-11 04:26:00,79.6,74.4,30.00,ESE,113,0.0,0.0,84,0.00,,,0.00,WUHU216HW,2013-06-11 08:26:00,
2013-06-11 04:31:00,79.6,74.4,30.00,ESE,113,0.0,0.0,84,0.00,,,0.00,WUHU216HW,2013-06-11 08:31:00,
2013-06-11 04:36:00,79.6,74.4,30.01,ESE,113,0.0,0.4,84,0.00,,,0.00,WUHU216HW,2013-06-11 08:36:00,
2013-06-11 04:37:00,79.4,74.2,30.00,ESE,113,0.0,0.0,84,0.00,,,0.00,WUHU216HW,2013-06-11 08:37:00,
2013-06-11 04:41:00,79.4,74.2,30.00,ESE,113,0.0,0.4,84,0.00,,,0.00,WUHU216HW,2013-06-11 08:41:00,
2013-06-11 04:46:00,79.4,74.2,30.00,ESE,113,0.0,0.0,84,0.00,,,0.00,WUHU216HW,2013-06-11 08:46:00,
2013-06-11 05:00:00,79.2,74.0,30.00,ESE,113,0.4,0.4,84,0.00,,,0.00,WUHU216HW,2013-06-11 09:00:00,
2013-06-11 05:06:00,79.2,74.0,30.00,ESE,113,0.2,0.4,84,0.00,,,0.00,WUHU216HW,2013-06-11 09:06:00,
2013-06-11 05:11:00,79.2,74.0,30.00,East,90,0.4,0.4,84,0.00,,,0.00,WUHU216HW,2013-06-11 09:11:00,
2013-06-11 05:16:00,79.0,73.8,30.00,East,90,0.0,0.4,84,0.00,,,0.00,WUHU216HW,2013-06-11 09:16:00,
2013-06-11 05:21:00,79.0,73.8,30.01,East,90,0.0,0.0,84,0.00,,,0.00,WUHU216HW,2013-06-11 09:21:00,
2013-06-11 05:26:00,79.0,73.8,30.01,East,90,0.2,0.4,84,0.00,,,0.00,WUHU216HW,2013-06-11 09:26:00,
2013-06-11 05:31:00,79.0,74.2,30.01,East,90,0.0,0.4,85,0.00,,,0.00,WUHU216HW,2013-06-11 09:31:00,
2013-06-11 05:36:00,79.0,74.2,30.01,East,90,0.0,0.4,85,0.00,,,0.00,WUHU216HW,2013-06-11 09:36:00,
2013-06-11 05:41:00,79.0,74.2,30.01,ENE,68,0.0,0.4,85,0.00,,,0.00,WUHU216HW,2013-06-11 09:41:00,
2013-06-11 05:47:00,78.8,74.0,30.01,NE,45,0.2,0.4,85,0.00,,,0.00,WUHU216HW,2013-06-11 09:47:00,
2013-06-11 05:52:00,79.0,74.2,30.01,NNE,23,0.4,0.7,85,0.00,,,0.00,WUHU216HW,2013-06-11 09:52:00,
2013-06-11 05:57:00,79.0,74.2,30.01,NNE,23,0.4,0.7,85,0.00,,,0.00,WUHU216HW,2013-06-11 09:57:00,
2013-06-11 06:02:00,78.8,74.0,30.01,NE,45,1.1,1.1,85,0.00,,,0.00,WUHU216HW,2013-06-11 10:02:00,
2013-06-11 06:07:00,78.8,74.0,30.01,North,0,0.7,1.1,85,0.00,,,0.00,WUHU216HW,2013-06-11 10:07:00,
2013-06-11 06:12:00,78.8,74.0,30.01,NW,315,0.4,0.7,85,0.00,,,0.00,WUHU216HW,2013-06-11 10:12:00,
2013-06-11 06:17:00,78.8,74.0,30.02,NW,315,0.4,0.7,85,0.00,,,0.00,WUHU216HW,2013-06-11 10:17:00,
2013-06-11 06:22:00,78.8,74.0,30.02,North,0,0.9,1.1,85,0.00,,,0.00,WUHU216HW,2013-06-11 10:22:00,
2013-06-11 06:27:00,78.8,74.0,30.02,North,0,0.4,1.1,85,0.00,,,0.00,WUHU216HW,2013-06-11 10:27:00,
2013-06-11 06:32:00,78.7,73.8,30.02,North,0,0.4,1.1,85,0.00,,,0.00,WUHU216HW,2013-06-11 10:32:00,
2013-06-11 06:37:00,78.7,73.8,30.02,North,0,1.3,1.6,85,0.00,,,0.00,WUHU216HW,2013-06-11 10:37:00,
2013-06-11 06:42:00,78.5,73.6,30.02,North,0,1.1,1.8,85,0.00,,,0.00,WUHU216HW,2013-06-11 10:42:00,
2013-06-11 06:47:00,78.5,73.6,30.02,North,0,1.6,1.8,85,0.00,,,0.00,WUHU216HW,2013-06-11 10:47:00,
2013-06-11 06:52:00,78.5,73.6,30.02,North,0,0.4,1.6,85,0.00,,,0.00,WUHU216HW,2013-06-11 10:52:00,
2013-06-11 06:57:00,78.5,73.6,30.02,North,0,0.9,1.3,85,0.00,,,0.00,WUHU216HW,2013-06-11 10:57:00,
2013-06-11 07:02:00,78.5,73.6,30.02,North,0,0.7,1.1,85,0.00,,,0.00,WUHU216HW,2013-06-11 11:02:00,
2013-06-11 07:07:00,78.5,73.6,30.02,NNE,23,0.2,1.3,85,0.00,,,0.00,WUHU216HW,2013-06-11 11:07:00,
2013-06-11 07:13:00,78.5,73.6,30.02,NNE,23,1.1,1.8,85,0.00,,,0.00,WUHU216HW,2013-06-11 11:13:00,
2013-06-11 07:18:00,78.3,73.4,30.02,NNE,23,1.3,1.8,85,0.00,,,0.00,WUHU216HW,2013-06-11 11:18:00,
2013-06-11 07:23:00,78.3,73.4,30.02,NNE,23,0.0,1.6,85,0.00,,,0.00,WUHU216HW,2013-06-11 11:23:00,
2013-06-11 07:28:00,78.5,73.6,30.03,NNE,23,0.0,0.4,85,0.00,,,0.00,WUHU216HW,2013-06-11 11:28:00,
2013-06-11 07:33:00,78.5,73.6,30.03,NW,315,0.0,1.1,85,0.00,,,0.00,WUHU216HW,2013-06-11 11:33:00,
2013-06-11 07:38:00,78.7,73.8,30.03,NNW,338,1.6,1.6,85,0.00,,,0.00,WUHU216HW,2013-06-11 11:38:00,
2013-06-11 07:43:00,78.5,73.6,30.03,NNE,23,0.4,1.6,85,0.00,,,0.00,WUHU216HW,2013-06-11 11:43:00,
2013-06-11 07:48:00,78.7,73.8,30.03,North,0,1.3,2.5,85,0.00,,,0.00,WUHU216HW,2013-06-11 11:48:00,
2013-06-11 07:53:00,78.8,74.0,30.03,North,0,1.1,2.5,85,0.00,,,0.00,WUHU216HW,2013-06-11 11:53:00,
2013-06-11 07:58:00,78.7,73.8,30.03,East,90,1.1,2.0,85,0.00,,,0.00,WUHU216HW,2013-06-11 11:58:00,
2013-06-11 08:03:00,78.8,74.3,30.04,North,0,2.2,2.2,86,0.00,,,0.00,WUHU216HW,2013-06-11 12:03:00,
2013-06-11 08:08:00,78.8,74.3,30.04,NNE,23,1.1,2.5,86,0.00,,,0.00,WUHU216HW,2013-06-11 12:08:00,
2013-06-11 08:13:00,79.0,74.5,30.04,NE,45,2.5,2.5,86,0.00,,,0.00,WUHU216HW,2013-06-11 12:13:00,
2013-06-11 08:18:00,79.2,74.7,30.04,ENE,68,3.1,3.1,86,0.00,,,0.00,WUHU216HW,2013-06-11 12:18:00,
2013-06-11 08:23:00,79.2,74.7,30.04,ENE,68,1.6,3.4,86,0.00,,,0.00,WUHU216HW,2013-06-11 12:23:00,
2013-06-11 08:28:00,79.0,74.5,30.04,NE,45,0.7,3.4,86,0.00,,,0.00,WUHU216HW,2013-06-11 12:28:00,
2013-06-11 08:33:00,79.2,74.7,30.04,East,90,0.9,2.9,86,0.00,,,0.00,WUHU216HW,2013-06-11 12:33:00,
2013-06-11 08:38:00,79.6,75.1,30.04,NNE,23,2.2,2.9,86,0.00,,,0.00,WUHU216HW,2013-06-11 12:38:00,
2013-06-11 08:43:00,79.7,75.2,30.05,NNE,23,1.3,2.9,86,0.00,,,0.00,WUHU216HW,2013-06-11 12:43:00,
2013-06-11 08:49:00,79.9,75.3,30.05,NE,45,0.9,2.0,86,0.00,,,0.00,WUHU216HW,2013-06-11 12:49:00,
2013-06-11 08:54:00,80.1,75.2,30.05,NNE,23,1.8,4.0,85,0.00,,,0.00,WUHU216HW,2013-06-11 12:54:00,
2013-06-11 08:59:00,80.3,75.3,30.05,NNW,338,1.3,4.0,85,0.00,,,0.00,WUHU216HW,2013-06-11 12:59:00,
2013-06-11 09:04:00,80.3,75.3,30.05,NW,315,1.1,2.5,85,0.00,,,0.00,WUHU216HW,2013-06-11 13:04:00,
2013-06-11 09:09:00,80.6,75.7,30.05,North,0,2.5,2.5,85,0.00,,,0.00,WUHU216HW,2013-06-11 13:09:00,
2013-06-11 09:14:00,80.8,75.9,30.05,East,90,2.7,2.7,85,0.00,,,0.00,WUHU216HW,2013-06-11 13:14:00,
2013-06-11 09:19:00,80.8,75.9,30.05,ENE,68,0.9,3.1,85,0.00,,,0.00,WUHU216HW,2013-06-11 13:19:00,
2013-06-11 09:24:00,81.0,76.1,30.05,North,0,1.6,3.1,85,0.00,,,0.00,WUHU216HW,2013-06-11 13:24:00,
2013-06-11 09:29:00,81.2,76.6,30.05,NE,45,2.5,2.5,86,0.00,,,0.00,WUHU216HW,2013-06-11 13:29:00,
2013-06-11 09:34:00,81.4,76.8,30.05,ESE,113,0.4,2.9,86,0.00,,,0.00,WUHU216HW,2013-06-11 13:34:00,
2013-06-11 09:39:00,81.7,76.8,30.05,East,90,2.2,2.9,85,0.00,,,0.00,WUHU216HW,2013-06-11 13:39:00,
2013-06-11 09:44:00,82.3,77.3,30.05,ESE,113,2.2,2.2,85,0.00,,,0.00,WUHU216HW,2013-06-11 13:44:00,
2013-06-11 09:49:00,82.4,77.1,30.05,North,0,1.1,2.2,84,0.00,,,0.00,WUHU216HW,2013-06-11 13:49:00,
2013-06-11 09:55:00,82.8,77.5,30.05,NE,45,1.3,2.5,84,0.00,,,0.00,WUHU216HW,2013-06-11 13:55:00,
2013-06-11 10:00:00,83.0,77.3,30.05,ENE,68,0.4,2.7,83,0.00,,,0.00,WUHU216HW,2013-06-11 14:00:00,
2013-06-11 10:05:00,83.3,77.7,30.05,SE,135,0.7,2.7,83,0.00,,,0.00,WUHU216HW,2013-06-11 14:05:00,
2013-06-11 10:10:00,84.1,77.9,30.05,SE,135,1.1,3.4,82,0.00,,,0.00,WUHU216HW,2013-06-11 14:10:00,
2013-06-11 10:15:00,84.6,78.5,30.05,SE,135,0.2,3.4,82,0.00,,,0.00,WUHU216HW,2013-06-11 14:15:00,
2013-06-11 10:20:00,85.1,78.7,30.05,SSE,158,1.3,3.4,81,0.00,,,0.00,WUHU216HW,2013-06-11 14:20:00,
2013-06-11 10:25:00,85.9,78.7,30.05,South,180,0.4,3.4,79,0.00,,,0.00,WUHU216HW,2013-06-11 14:25:00,
2013-06-11 10:30:00,86.4,79.2,30.05,SE,135,1.3,3.4,79,0.00,,,0.00,WUHU216HW,2013-06-11 14:30:00,
2013-06-11 10:35:00,86.4,78.8,30.05,SE,135,1.3,3.1,78,0.00,,,0.00,WUHU216HW,2013-06-11 14:35:00,
2013-06-11 10:40:00,86.4,78.4,30.05,SE,135,1.1,2.7,77,0.00,,,0.00,WUHU216HW,2013-06-11 14:40:00,
2013-06-11 10:46:00,86.4,78.4,30.05,SSE,158,1.6,2.5,77,0.00,,,0.00,WUHU216HW,2013-06-11 14:46:00,
2013-06-11 10:51:00,86.6,78.1,30.05,ESE,113,0.9,2.5,76,0.00,,,0.00,WUHU216HW,2013-06-11 14:51:00,
2013-06-11 10:56:00,87.1,78.7,30.05,SW,225,0.2,3.6,76,0.00,,,0.00,WUHU216HW,2013-06-11 14:56:00,
2013-06-11 11:01:00,87.5,79.0,30.05,SE,135,0.4,3.6,76,0.00,,,0.00,WUHU216HW,2013-06-11 15:01:00,
2013-06-11 11:06:00,88.0,79.5,30.05,SSE,158,1.6,2.2,76,0.00,,,0.00,WUHU216HW,2013-06-11 15:06:00,
2013-06-11 11:11:00,88.6,79.7,30.05,SSE,158,0.4,2.2,75,0.00,,,0.00,WUHU216HW,2013-06-11 15:11:00,
2013-06-11 11:16:00,88.7,79.4,30.05,NE,45,0.2,2.5,74,0.00,,,0.00,WUHU216HW,2013-06-11 15:16:00,
2013-06-11 11:21:00,88.6,79.2,30.06,SW,225,0.0,2.5,74,0.00,,,0.00,WUHU216HW,2013-06-11 15:21:00,
2013-06-11 11:27:00,88.7,79.4,30.06,NE,45,0.0,1.6,74,0.00,,,0.00,WUHU216HW,2013-06-11 15:27:00,
2013-06-11 11:32:00,89.1,79.3,30.06,SSE,158,0.2,1.1,73,0.00,,,0.00,WUHU216HW,2013-06-11 15:32:00,
2013-06-11 11:37:00,89.5,79.3,30.05,ESE,113,3.1,3.1,72,0.00,,,0.00,WUHU216HW,2013-06-11 15:37:00,
2013-06-11 11:42:00,89.3,78.7,30.05,ENE,68,0.7,3.1,71,0.00,,,0.00,WUHU216HW,2013-06-11 15:42:00,
2013-06-11 11:47:00,88.7,78.2,30.05,ESE,113,0.7,3.4,71,0.00,,,0.00,WUHU216HW,2013-06-11 15:47:00,
2013-06-11 11:52:00,88.0,77.5,30.06,NNW,338,0.7,3.4,71,0.00,,,0.00,WUHU216HW,2013-06-11 15:52:00,
2013-06-11 11:57:00,87.7,77.5,30.05,NNW,338,0.4,2.5,72,0.00,,,0.00,WUHU216HW,2013-06-11 15:57:00,
2013-06-11 12:02:00,87.5,77.4,30.05,West,270,1.1,2.5,72,0.00,,,0.00,WUHU216HW,2013-06-11 16:02:00,
2013-06-11 12:07:00,88.0,77.9,30.05,East,90,0.4,2.5,72,0.00,,,0.00,WUHU216HW,2013-06-11 16:07:00,
2013-06-11 12:13:00,88.6,78.4,30.05,NNE,23,1.6,1.6,72,0.00,,,0.00,WUHU216HW,2013-06-11 16:13:00,
2013-06-11 12:18:00,89.1,78.9,30.05,ESE,113,0.9,1.6,72,0.00,,,0.00,WUHU216HW,2013-06-11 16:18:00,
2013-06-11 12:23:00,89.6,78.7,30.05,SE,135,1.8,2.7,70,0.00,,,0.00,WUHU216HW,2013-06-11 16:23:00,
2013-06-11 12:28:00,90.0,78.5,30.05,NE,45,1.1,2.7,69,0.00,,,0.00,WUHU216HW,2013-06-11 16:28:00,
2013-06-11 12:33:00,90.4,78.0,30.05,SSE,158,1.1,2.5,67,0.01,,,0.00,WUHU216HW,2013-06-11 16:33:00,
2013-06-11 12:38:00,90.5,79.0,30.05,North,0,1.1,2.5,69,0.01,,,0.00,WUHU216HW,2013-06-11 16:38:00,
2013-06-11 12:43:00,90.4,78.8,30.04,SE,135,1.6,1.6,69,0.01,,,0.00,WUHU216HW,2013-06-11 16:43:00,
2013-06-11 12:48:00,90.5,79.0,30.04,NW,315,0.4,2.2,69,0.01,,,0.00,WUHU216HW,2013-06-11 16:48:00,
2013-06-11 12:53:00,90.7,78.7,30.04,SW,225,0.4,2.2,68,0.01,,,0.00,WUHU216HW,2013-06-11 16:53:00,
2013-06-11 12:58:00,90.9,78.8,30.04,NW,315,1.8,2.0,68,0.01,,,0.00,WUHU216HW,2013-06-11 16:58:00,
2013-06-11 13:03:00,90.9,78.8,30.04,WSW,248,2.7,2.7,68,0.01,,,0.00,WUHU216HW,2013-06-11 17:03:00,
2013-06-11 13:08:00,90.7,79.2,30.04,WNW,293,0.7,2.7,69,0.01,,,0.00,WUHU216HW,2013-06-11 17:08:00,
2013-06-11 13:13:00,90.4,79.3,30.04,NW,315,2.7,5.1,70,0.01,,,0.00,WUHU216HW,2013-06-11 17:13:00,
2013-06-11 13:18:00,90.2,79.6,30.04,NW,315,1.1,5.1,71,0.01,,,0.00,WUHU216HW,2013-06-11 17:18:00,
2013-06-11 13:23:00,90.2,79.6,30.03,WSW,248,1.3,2.5,71,0.01,,,0.00,WUHU216HW,2013-06-11 17:23:00,
2013-06-11 13:29:00,90.9,80.2,30.03,South,180,2.2,2.2,71,0.00,,,0.00,WUHU216HW,2013-06-11 17:29:00,
2013-06-11 13:34:00,91.4,80.3,30.03,SW,225,1.3,3.4,70,0.00,,,0.00,WUHU216HW,2013-06-11 17:34:00,
2013-06-11 13:39:00,91.6,80.5,30.02,WSW,248,1.8,3.4,70,0.00,,,0.00,WUHU216HW,2013-06-11 17:39:00,
2013-06-11 13:44:00,91.4,79.8,30.02,West,270,1.8,3.6,69,0.00,,,0.00,WUHU216HW,2013-06-11 17:44:00,
2013-06-11 13:49:00,91.4,79.8,30.02,SW,225,1.1,3.6,69,0.00,,,0.00,WUHU216HW,2013-06-11 17:49:00,
2013-06-11 13:54:00,91.6,80.5,30.02,West,270,3.6,3.6,70,0.00,,,0.00,WUHU216HW,2013-06-11 17:54:00,
2013-06-11 13:59:00,91.8,80.2,30.01,West,270,2.9,6.7,69,0.00,,,0.00,WUHU216HW,2013-06-11 17:59:00,
2013-06-11 14:04:00,91.6,80.0,30.01,WSW,248,2.2,6.7,69,0.00,,,0.00,WUHU216HW,2013-06-11 18:04:00,
2013-06-11 14:09:00,91.4,79.4,30.01,West,270,0.7,5.4,68,0.00,,,0.00,WUHU216HW,2013-06-11 18:09:00,
2013-06-11 14:14:00,91.1,79.0,30.01,NW,315,1.8,5.4,68,0.00,,,0.00,WUHU216HW,2013-06-11 18:14:00,
2013-06-11 14:19:00,91.1,79.5,30.00,South,180,3.6,4.0,69,0.00,,,0.00,WUHU216HW,2013-06-11 18:19:00,
2013-06-11 14:24:00,91.4,79.8,30.00,West,270,2.0,4.5,69,0.00,,,0.00,WUHU216HW,2013-06-11 18:24:00,
2013-06-11 14:29:00,91.4,79.4,29.99,WSW,248,1.1,4.5,68,0.00,,,0.00,WUHU216HW,2013-06-11 18:29:00,
2013-06-11 14:34:00,91.8,80.2,30.00,West,270,3.4,3.6,69,0.00,,,0.00,WUHU216HW,2013-06-11 18:34:00,
2013-06-11 14:35:00,92.0,79.9,30.00,NNE,23,2.5,2.5,68,0.00,,,0.00,WUHU216HW,2013-06-11 18:35:00,
2013-06-11 14:39:00,92.0,79.9,30.00,NNE,23,2.5,3.4,68,0.00,,,0.00,WUHU216HW,2013-06-11 18:39:00,
2013-06-11 14:44:00,92.0,79.9,30.00,NNE,23,2.5,2.5,68,0.00,,,0.00,WUHU216HW,2013-06-11 18:44:00,
2013-06-11 15:01:00,91.8,79.8,30.00,West,270,1.8,1.8,68,0.00,,,0.00,WUHU216HW,2013-06-11 19:01:00,
2013-06-11 15:06:00,91.8,79.8,29.99,ESE,113,1.8,2.7,68,0.00,,,0.00,WUHU216HW,2013-06-11 19:06:00,
2013-06-11 15:11:00,92.2,80.1,29.99,WSW,248,1.1,4.3,68,0.00,,,0.00,WUHU216HW,2013-06-11 19:11:00,
2013-06-11 15:16:00,92.2,79.6,29.99,WNW,293,0.9,4.3,67,0.00,,,0.00,WUHU216HW,2013-06-11 19:16:00,
2013-06-11 15:21:00,92.0,78.9,29.99,West,270,2.5,4.0,66,0.00,,,0.00,WUHU216HW,2013-06-11 19:21:00,
2013-06-11 15:27:00,91.8,79.2,29.99,WSW,248,1.8,4.5,67,0.00,,,0.00,WUHU216HW,2013-06-11 19:27:00,
2013-06-11 15:32:00,91.8,79.2,29.99,NNW,338,1.3,4.5,67,0.00,,,0.00,WUHU216HW,2013-06-11 19:32:00,
2013-06-11 15:37:00,91.8,78.8,29.98,West,270,4.5,4.5,66,0.00,,,0.00,WUHU216HW,2013-06-11 19:37:00,
2013-06-11 15:42:00,91.8,79.2,29.98,SSW,203,0.4,4.5,67,0.00,,,0.00,WUHU216HW,2013-06-11 19:42:00,
2013-06-11 15:47:00,92.2,79.1,29.98,North,0,4.0,4.0,66,0.00,,,0.00,WUHU216HW,2013-06-11 19:47:00,
2013-06-11 15:52:00,92.2,79.6,29.98,WNW,293,4.0,4.0,67,0.00,,,0.00,WUHU216HW,2013-06-11 19:52:00,
2013-06-11 15:57:00,92.2,78.7,29.97,NW,315,2.5,4.0,65,0.00,,,0.00,WUHU216HW,2013-06-11 19:57:00,
2013-06-11 16:02:00,91.8,78.8,29.98,WNW,293,0.7,3.4,66,0.00,,,0.00,WUHU216HW,2013-06-11 20:02:00,
2013-06-11 16:07:00,92.0,78.9,29.98,SSE,158,2.5,3.4,66,0.00,,,0.00,WUHU216HW,2013-06-11 20:07:00,
2013-06-11 16:12:00,92.2,79.1,29.98,WSW,248,2.7,3.1,66,0.00,,,0.00,WUHU216HW,2013-06-11 20:12:00,
2013-06-11 16:17:00,92.2,78.7,29.98,SE,135,3.1,4.9,65,0.00,,,0.00,WUHU216HW,2013-06-11 20:17:00,
2013-06-11 16:22:00,92.0,78.5,29.97,WSW,248,2.5,4.9,65,0.00,,,0.00,WUHU216HW,2013-06-11 20:22:00,
2013-06-11 16:27:00,92.0,78.9,29.97,SSW,203,1.8,4.7,66,0.00,,,0.00,WUHU216HW,2013-06-11 20:27:00,
2013-06-11 16:32:00,92.5,79.0,29.97,SSE,158,0.4,2.5,65,0.00,,,0.00,WUHU216HW,2013-06-11 20:32:00,
2013-06-11 16:37:00,92.5,79.0,29.98,NW,315,0.4,2.5,65,0.00,,,0.00,WUHU216HW,2013-06-11 20:37:00,
2013-06-11 16:42:00,91.4,74.5,29.99,East,90,1.8,6.3,58,0.00,,,0.00,WUHU216HW,2013-06-11 20:42:00,
2013-06-11 16:47:00,90.2,73.4,30.01,ESE,113,7.2,7.2,58,0.00,,,0.00,WUHU216HW,2013-06-11 20:47:00,
2013-06-11 16:52:00,89.1,71.9,30.00,ESE,113,6.9,8.5,57,0.00,,,0.00,WUHU216HW,2013-06-11 20:52:00,
2013-06-11 16:58:00,86.9,71.5,30.01,SE,135,9.6,9.6,60,0.00,,,0.00,WUHU216HW,2013-06-11 20:58:00,
2013-06-11 17:03:00,86.0,71.5,30.01,East,90,5.4,9.6,62,0.00,,,0.00,WUHU216HW,2013-06-11 21:03:00,
2013-06-11 17:08:00,85.5,71.5,30.01,ESE,113,3.1,6.9,63,0.00,,,0.00,WUHU216HW,2013-06-11 21:08:00,
2013-06-11 17:13:00,84.8,71.3,30.01,East,90,5.6,6.9,64,0.00,,,0.00,WUHU216HW,2013-06-11 21:13:00,
2013-06-11 17:18:00,82.6,70.9,29.99,SE,135,7.6,7.6,68,0.00,,,0.00,WUHU216HW,2013-06-11 21:18:00,
2013-06-11 17:23:00,82.1,70.8,30.00,ENE,68,3.6,7.6,69,0.00,,,0.00,WUHU216HW,2013-06-11 21:23:00,
2013-06-11 17:28:00,80.6,70.4,30.01,ESE,113,1.8,5.8,71,0.00,,,0.00,WUHU216HW,2013-06-11 21:28:00,
2013-06-11 17:33:00,80.6,70.4,30.01,ENE,68,1.1,4.0,71,0.00,,,0.00,WUHU216HW,2013-06-11 21:33:00,
2013-06-11 17:38:00,79.9,70.5,30.01,NE,45,1.8,4.0,73,0.00,,,0.00,WUHU216HW,2013-06-11 21:38:00,
2013-06-11 17:43:00,79.6,70.1,30.02,SE,135,0.7,2.7,73,0.00,,,0.00,WUHU216HW,2013-06-11 21:43:00,
2013-06-11 17:48:00,79.4,70.4,30.01,NE,45,0.4,2.5,74,0.00,,,0.00,WUHU216HW,2013-06-11 21:48:00,
2013-06-11 17:53:00,79.4,70.7,30.02,NE,45,3.8,3.8,75,0.00,,,0.00,WUHU216HW,2013-06-11 21:53:00,
2013-06-11 17:58:00,78.8,70.6,30.04,West,270,4.0,5.8,76,0.00,,,0.00,WUHU216HW,2013-06-11 21:58:00,
2013-06-11 18:03:00,78.5,70.3,30.04,WNW,293,4.7,9.6,76,0.00,,,0.00,WUHU216HW,2013-06-11 22:03:00,
2013-06-11 18:09:00,78.1,69.5,30.03,East,90,3.4,9.6,75,0.00,,,0.00,WUHU216HW,2013-06-11 22:09:00,
2013-06-11 18:14:00,77.6,69.4,30.03,NE,45,2.9,5.4,76,0.00,,,0.00,WUHU216HW,2013-06-11 22:14:00,
2013-06-11 18:19:00,77.6,69.0,30.02,North,0,3.8,5.4,75,0.00,,,0.00,WUHU216HW,2013-06-11 22:19:00,
2013-06-11 18:24:00,77.8,69.2,30.01,North,0,4.0,7.6,75,0.00,,,0.00,WUHU216HW,2013-06-11 22:24:00,
2013-06-11 18:29:00,77.9,69.3,30.01,NNW,338,1.6,7.6,75,0.00,,,0.00,WUHU216HW,2013-06-11 22:29:00,
2013-06-11 18:34:00,78.3,69.7,30.00,ENE,68,1.1,6.3,75,0.00,,,0.00,WUHU216HW,2013-06-11 22:34:00,
2013-06-11 18:39:00,78.8,69.9,29.99,NE,45,0.4,6.3,74,0.00,,,0.00,WUHU216HW,2013-06-11 22:39:00,
2013-06-11 18:44:00,79.2,69.8,29.99,ENE,68,1.3,2.5,73,0.00,,,0.00,WUHU216HW,2013-06-11 22:44:00,
2013-06-11 18:49:00,79.6,69.8,29.99,NE,45,2.0,2.5,72,0.00,,,0.00,WUHU216HW,2013-06-11 22:49:00,
2013-06-11 18:54:00,79.6,69.8,29.99,NNE,23,1.1,3.1,72,0.00,,,0.00,WUHU216HW,2013-06-11 22:54:00,
2013-06-11 18:59:00,79.7,69.5,29.99,NNE,23,2.7,3.4,71,0.00,,,0.00,WUHU216HW,2013-06-11 22:59:00,
2013-06-11 19:04:00,79.6,69.8,29.99,NE,45,1.6,3.4,72,0.00,,,0.00,WUHU216HW,2013-06-11 23:04:00,
2013-06-11 19:09:00,79.7,69.9,30.00,NNE,23,2.7,3.4,72,0.00,,,0.00,WUHU216HW,2013-06-11 23:09:00,
2013-06-11 19:14:00,79.9,70.1,30.00,NE,45,1.1,5.1,72,0.00,,,0.00,WUHU216HW,2013-06-11 23:14:00,
2013-06-11 19:19:00,79.9,70.5,30.00,NNE,23,2.7,5.1,73,0.00,,,0.00,WUHU216HW,2013-06-11 23:19:00,
2013-06-11 19:24:00,80.1,70.3,30.00,NE,45,2.7,3.4,72,0.00,,,0.00,WUHU216HW,2013-06-11 23:24:00,
2013-06-11 19:29:00,80.3,70.0,30.00,NNE,23,2.7,2.9,71,0.00,,,0.00,WUHU216HW,2013-06-11 23:29:00,
2013-06-11 19:34:00,80.6,70.4,30.00,ENE,68,1.8,2.7,71,0.00,,,0.00,WUHU216HW,2013-06-11 23:34:00,
2013-06-11 19:39:00,81.0,70.4,30.00,NE,45,0.7,2.0,70,0.00,,,0.00,WUHU216HW,2013-06-11 23:39:00,
2013-06-11 19:44:00,81.2,70.5,30.01,NE,45,1.1,2.0,70,0.00,,,0.00,WUHU216HW,2013-06-11 23:44:00,
2013-06-11 19:50:00,81.4,70.7,30.01,NNE,23,0.7,1.6,70,0.00,,,0.00,WUHU216HW,2013-06-11 23:50:00,
2013-06-11 19:55:00,81.4,70.7,30.01,ENE,68,0.7,2.0,70,0.00,,,0.00,WUHU216HW,2013-06-11 23:55:00,
2013-06-11 20:00:00,81.4,70.7,30.01,East,90,0.9,2.2,70,0.00,,,0.00,WUHU216HW,2013-06-12 00:00:00,
2013-06-11 20:05:00,81.2,70.5,30.01,NE,45,1.8,2.5,70,0.00,,,0.00,WUHU216HW,2013-06-12 00:05:00,
2013-06-11 20:10:00,81.0,70.4,30.01,NE,45,1.8,3.4,70,0.00,,,0.00,WUHU216HW,2013-06-12 00:10:00,
2013-06-11 20:15:00,80.8,70.6,30.01,ENE,68,0.4,3.4,71,0.00,,,0.00,WUHU216HW,2013-06-12 00:15:00,
2013-06-11 20:20:00,80.8,70.6,30.01,East,90,1.8,1.8,71,0.00,,,0.00,WUHU216HW,2013-06-12 00:20:00,
2013-06-11 20:25:00,80.8,70.6,30.01,NE,45,0.4,1.8,71,0.00,,,0.00,WUHU216HW,2013-06-12 00:25:00,
2013-06-11 20:30:00,80.6,70.4,30.01,NNE,23,1.3,2.5,71,0.00,,,0.00,WUHU216HW,2013-06-12 00:30:00,
2013-06-11 20:35:00,80.5,70.2,30.01,ESE,113,1.1,2.5,71,0.00,,,0.00,WUHU216HW,2013-06-12 00:35:00,
2013-06-11 20:40:00,80.5,70.7,30.01,ENE,68,0.0,1.6,72,0.00,,,0.00,WUHU216HW,2013-06-12 00:40:00,
2013-06-11 20:45:00,80.6,71.2,30.01,East,90,0.2,1.6,73,0.00,,,0.00,WUHU216HW,2013-06-12 00:45:00,
2013-06-11 20:50:00,80.8,71.4,30.01,ESE,113,0.4,0.9,73,0.00,,,0.00,WUHU216HW,2013-06-12 00:50:00,
2013-06-11 20:55:00,81.0,71.6,30.00,SSE,158,0.0,0.9,73,0.00,,,0.00,WUHU216HW,2013-06-12 00:55:00,
2013-06-11 21:00:00,81.0,71.6,30.00,SSE,158,0.7,0.9,73,0.00,,,0.00,WUHU216HW,2013-06-12 01:00:00,
2013-06-11 21:05:00,81.0,71.6,30.00,SSE,158,0.0,0.7,73,0.00,,,0.00,WUHU216HW,2013-06-12 01:05:00,
2013-06-11 21:10:00,80.8,71.7,30.01,SSE,158,0.0,0.2,74,0.00,,,0.00,WUHU216HW,2013-06-12 01:10:00,
2013-06-11 21:16:00,80.8,71.7,30.00,SSE,158,0.0,0.7,74,0.00,,,0.00,WUHU216HW,2013-06-12 01:16:00,
2013-06-11 21:21:00,80.6,71.7,30.00,SE,135,0.2,1.3,74,0.00,,,0.00,WUHU216HW,2013-06-12 01:21:00,
2013-06-11 21:22:00,80.6,71.7,30.00,SE,135,0.0,0.0,74,0.00,,,0.00,WUHU216HW,2013-06-12 01:22:00,
2013-06-11 21:26:00,80.6,71.7,30.00,SE,135,0.0,1.3,74,0.00,,,0.00,WUHU216HW,2013-06-12 01:26:00,
2013-06-11 21:31:00,80.6,71.7,30.00,SE,135,0.0,0.2,74,0.00,,,0.00,WUHU216HW,2013-06-12 01:31:00,
2013-06-11 21:53:00,80.5,71.8,30.00,SSE,158,0.7,0.7,75,0.00,,,0.00,WUHU216HW,2013-06-12 01:53:00,
2013-06-11 21:58:00,80.5,71.8,30.00,SSE,158,0.7,0.7,75,0.00,,,0.00,WUHU216HW,2013-06-12 01:58:00,
2013-06-11 22:00:00,80.3,72.0,29.99,SSE,158,0.0,0.0,76,0.00,,,0.00,WUHU216HW,2013-06-12 02:00:00,
2013-06-11 22:03:00,80.3,72.0,29.99,SSE,158,0.0,0.0,76,0.00,,,0.00,WUHU216HW,2013-06-12 02:03:00,
2013-06-11 22:08:00,80.3,72.0,29.99,SSE,158,0.0,0.0,76,0.00,,,0.00,WUHU216HW,2013-06-12 02:08:00,
2013-06-11 22:30:00,79.9,72.1,30.00,NE,45,0.0,0.0,77,0.00,,,0.00,WUHU216HW,2013-06-12 02:30:00,
2013-06-11 22:31:00,79.9,72.1,30.00,NE,45,0.0,0.0,77,0.00,,,0.00,WUHU216HW,2013-06-12 02:31:00,
2013-06-11 22:36:00,79.9,72.1,30.00,NE,45,0.0,0.0,77,0.00,,,0.00,WUHU216HW,2013-06-12 02:36:00,
2013-06-11 23:00:00,78.8,71.4,30.01,North,0,2.5,2.5,78,0.00,,,0.00,WUHU216HW,2013-06-12 03:00:00,
2013-06-11 23:06:00,78.8,71.8,30.01,ESE,113,0.7,2.5,79,0.00,,,0.00,WUHU216HW,2013-06-12 03:06:00,
2013-06-11 23:11:00,78.8,71.8,30.01,East,90,0.7,2.5,79,0.00,,,0.00,WUHU216HW,2013-06-12 03:11:00,
2013-06-11 23:16:00,79.0,72.0,30.01,SSE,158,0.4,1.1,79,0.00,,,0.00,WUHU216HW,2013-06-12 03:16:00,
2013-06-11 23:21:00,79.2,72.2,30.01,SSE,158,0.0,0.9,79,0.00,,,0.00,WUHU216HW,2013-06-12 03:21:00,
2013-06-11 23:26:00,79.2,72.2,30.01,SSE,158,0.0,0.4,79,0.00,,,0.00,WUHU216HW,2013-06-12 03:26:00,
2013-06-11 23:31:00,79.4,72.4,30.02,SSE,158,0.0,0.0,79,0.00,,,0.00,WUHU216HW,2013-06-12 03:31:00,
2013-06-11 23:36:00,79.2,72.2,30.02,SW,225,0.0,0.2,79,0.00,,,0.00,WUHU216HW,2013-06-12 03:36:00,
2013-06-11 23:42:00,79.2,72.2,30.02,North,0,0.7,0.7,79,0.00,,,0.00,WUHU216HW,2013-06-12 03:42:00,
2013-06-11 23:47:00,79.0,72.4,30.02,North,0,2.0,2.2,80,0.00,,,0.00,WUHU216HW,2013-06-12 03:47:00,
2013-06-11 23:52:00,78.8,72.2,30.03,NE,45,1.1,2.2,80,0.00,,,0.00,WUHU216HW,2013-06-12 03:52:00,
2013-06-11 23:57:00,78.5,72.2,30.03,NE,45,0.4,1.8,81,0.00,,,0.00,WUHU216HW,2013-06-12 03:57:00,